• In Uzbekistan
  • List of Countries
  • For 7 days
  • Water Temperature
  • Satellite Maps
  • Weather Map
  • Weather Widgets
  • user-avatar
    Login

    Hourly Weather Szentendre

    Today, 19 October, Thursday

    Time Temperature Precipitation Wind Pressure Humidity
    00:00 +15°C° 0 mm 1 mps 748 mmHg 65%
    01:00 +14°C° 0 mm 1 mps 748 mmHg 66%
    02:00 +14°C° 0 mm 1 mps 748 mmHg 68%
    03:00 +13°C° 0 mm 1 mps 748 mmHg 69%
    04:00 +13°C° 0 mm 1 mps 748 mmHg 71%
    05:00 +13°C° 0 mm 1 mps 748 mmHg 72%
    06:00 +13°C° 0 mm 1 mps 748 mmHg 73%
    07:00 +13°C° 0 mm 1 mps 748 mmHg 74%
    08:00 +15°C° 0 mm 1 mps 749 mmHg 67%
    09:00 +18°C° 0 mm 1 mps 749 mmHg 61%
    10:00 +20°C° 0 mm 1 mps 749 mmHg 54%
    11:00 +21°C° 0 mm 1 mps 749 mmHg 50%
    12:00 +22°C° 0 mm 1 mps 749 mmHg 47%
    13:00 +23°C° 0 mm 2 mps 749 mmHg 43%
    14:00 +22°C° 0 mm 1 mps 748 mmHg 45%
    15:00 +22°C° 0 mm 1 mps 748 mmHg 47%
    16:00 +21°C° 0 mm 1 mps 748 mmHg 49%
    17:00 +20°C° 0 mm 1 mps 748 mmHg 54%
    18:00 +18°C° 0 mm 1 mps 748 mmHg 58%
    19:00 +16°C° 0 mm 1 mps 749 mmHg 62%
    20:00 +16°C° 0 mm 1 mps 749 mmHg 65%
    21:00 +15°C° 0 mm 1 mps 749 mmHg 67%
    22:00 +15°C° 0 mm 1 mps 749 mmHg 69%
    23:00 +13°C° 0 mm 0 mps 749 mmHg 71%

    Tomorrow, 20 October, Friday

    Time Temperature Precipitation Wind Pressure Humidity
    00:00 +13°C° 0 mm 0 mps 749 mmHg 73%
    01:00 +12°C° 0 mm 0 mps 749 mmHg 75%
    02:00 +12°C° 0 mm 0 mps 749 mmHg 76%
    03:00 +12°C° 0 mm 0 mps 749 mmHg 77%
    04:00 +12°C° 0 mm 0 mps 749 mmHg 79%
    05:00 +12°C° 0 mm 0 mps 749 mmHg 79%
    06:00 +12°C° 0 mm 0 mps 750 mmHg 79%
    07:00 +12°C° 0 mm 0 mps 750 mmHg 79%
    08:00 +14°C° 0 mm 0 mps 750 mmHg 71%
    09:00 +16°C° 0 mm 0 mps 750 mmHg 63%
    10:00 +18°C° 0 mm 0 mps 750 mmHg 55%
    11:00 +21°C° 0 mm 1 mps 750 mmHg 51%
    12:00 +22°C° 0 mm 1 mps 750 mmHg 47%
    13:00 +23°C° 0 mm 1 mps 750 mmHg 43%
    14:00 +22°C° 0 mm 1 mps 750 mmHg 44%
    15:00 +21°C° 0 mm 1 mps 750 mmHg 46%
    16:00 +19°C° 0 mm 0 mps 749 mmHg 47%
    17:00 +20°C° 0 mm 1 mps 750 mmHg 51%
    18:00 +19°C° 0 mm 1 mps 750 mmHg 54%
    19:00 +16°C° 0 mm 1 mps 750 mmHg 57%
    20:00 +16°C° 0 mm 1 mps 751 mmHg 59%
    21:00 +15°C° 0 mm 1 mps 751 mmHg 61%
    22:00 +15°C° 0 mm 1 mps 751 mmHg 63%
    23:00 +14°C° 0 mm 1 mps 751 mmHg 65%

    Day after tomorrow, 21 October, Saturday

    Time Temperature Precipitation Wind Pressure Humidity
    00:00 +14°C° 0 mm 1 mps 751 mmHg 67%
    01:00 +14°C° 0 mm 1 mps 751 mmHg 69%
    02:00 +13°C° 0 mm 1 mps 751 mmHg 71%
    03:00 +13°C° 0 mm 1 mps 751 mmHg 72%
    04:00 +13°C° 0 mm 1 mps 751 mmHg 74%
    05:00 +12°C° 0 mm 1 mps 751 mmHg 75%
    06:00 +12°C° 0 mm 1 mps 751 mmHg 75%
    07:00 +12°C° 0 mm 1 mps 752 mmHg 76%
    08:00 +14°C° 0 mm 1 mps 752 mmHg 68%
    09:00 +16°C° 0 mm 1 mps 752 mmHg 61%
    10:00 +19°C° 0 mm 1 mps 752 mmHg 53%
    11:00 +20°C° 0 mm 1 mps 752 mmHg 51%
    12:00 +21°C° 0 mm 1 mps 751 mmHg 48%
    13:00 +22°C° 0 mm 1 mps 751 mmHg 45%
    14:00 +19°C° 0 mm 0 mps 751 mmHg 47%
    15:00 +19°C° 0 mm 0 mps 751 mmHg 50%
    16:00 +18°C° 0 mm 0 mps 750 mmHg 52%
    17:00 +17°C° 0 mm 0 mps 750 mmHg 55%
    18:00 +16°C° 0 mm 0 mps 751 mmHg 57%
    19:00 +16°C° 0 mm 0 mps 751 mmHg 59%
    20:00 +15°C° 0 mm 0 mps 751 mmHg 61%
    21:00 +16°C° 0 mm 1 mps 751 mmHg 63%
    22:00 +15°C° 0 mm 1 mps 750 mmHg 65%
    23:00 +15°C° 0 mm 1 mps 750 mmHg 66%

    22 October, Sunday

    Time Temperature Precipitation Wind Pressure Humidity
    00:00 +14°C° 0 mm 1 mps 750 mmHg 68%
    01:00 +14°C° 0 mm 1 mps 750 mmHg 69%
    02:00 +14°C° 0 mm 1 mps 750 mmHg 70%
    03:00 +14°C° 0 mm 1 mps 750 mmHg 72%
    04:00 +13°C° 0 mm 1 mps 749 mmHg 73%
    05:00 +13°C° 0 mm 1 mps 749 mmHg 73%
    06:00 +13°C° 0 mm 1 mps 749 mmHg 73%
    07:00 +14°C° 0 mm 1 mps 749 mmHg 72%
    08:00 +15°C° 0 mm 1 mps 749 mmHg 68%
    09:00 +16°C° 0 mm 1 mps 749 mmHg 63%
    10:00 +18°C° 0 mm 1 mps 749 mmHg 59%
    11:00 +19°C° 0 mm 1 mps 749 mmHg 57%
    12:00 +19°C° 0 mm 1 mps 748 mmHg 56%
    13:00 +20°C° 0 mm 1 mps 748 mmHg 54%
    14:00 +20°C° 0 mm 1 mps 747 mmHg 56%
    15:00 +19°C° 0 mm 1 mps 747 mmHg 58%
    16:00 +18°C° 0 mm 2 mps 746 mmHg 59%
    17:00 +17°C° 0.2 mm 2 mps 746 mmHg 63%
    18:00 +16°C° 0.2 mm 3 mps 746 mmHg 67%
    19:00 +14°C° 0.2 mm 3 mps 746 mmHg 71%
    20:00 +14°C° 1.5 mm 3 mps 746 mmHg 75%
    21:00 +13°C° 1.5 mm 4 mps 746 mmHg 78%
    22:00 +13°C° 1.5 mm 4 mps 746 mmHg 82%
    23:00 +12°C° 2.4 mm 4 mps 746 mmHg 83%

    23 October, Monday

    Time Temperature Precipitation Wind Pressure Humidity
    00:00 +12°C° 2.4 mm 5 mps 745 mmHg 84%
    01:00 +10°C° 2.4 mm 5 mps 745 mmHg 85%
    02:00 +10°C° 1.3 mm 6 mps 745 mmHg 84%
    03:00 +9°C° 1.3 mm 6 mps 745 mmHg 84%
    04:00 +9°C° 1.3 mm 6 mps 745 mmHg 83%
    05:00 +9°C° 0.5 mm 6 mps 745 mmHg 82%
    06:00 +9°C° 0.5 mm 6 mps 745 mmHg 81%
    07:00 +9°C° 0.5 mm 7 mps 745 mmHg 80%
    08:00 +9°C° 0.6 mm 7 mps 745 mmHg 80%
    09:00 +9°C° 0.6 mm 7 mps 745 mmHg 79%
    10:00 +9°C° 0.6 mm 7 mps 746 mmHg 78%
    11:00 +9°C° 0.8 mm 7 mps 746 mmHg 78%
    12:00 +9°C° 0.8 mm 7 mps 746 mmHg 78%
    13:00 +9°C° 0.8 mm 7 mps 746 mmHg 78%
    14:00 +9°C° 0.6 mm 7 mps 746 mmHg 77%
    15:00 +9°C° 0.6 mm 6 mps 747 mmHg 77%
    16:00 +9°C° 0.6 mm 6 mps 747 mmHg 76%
    17:00 +9°C° 0.3 mm 6 mps 748 mmHg 76%
    18:00 +9°C° 0.3 mm 6 mps 748 mmHg 76%
    19:00 +9°C° 0.3 mm 5 mps 748 mmHg 75%
    20:00 +9°C° 0.1 mm 5 mps 749 mmHg 75%
    21:00 +9°C° 0.1 mm 5 mps 749 mmHg 75%
    22:00 +9°C° 0.1 mm 5 mps 750 mmHg 76%
    23:00 +8°C° 0 mm 5 mps 750 mmHg 76%

    24 October, Tuesday

    Time Temperature Precipitation Wind Pressure Humidity
    00:00 +8°C° 0 mm 5 mps 750 mmHg 77%
    01:00 +8°C° 0 mm 5 mps 751 mmHg 77%
    02:00 +8°C° 0 mm 4 mps 751 mmHg 79%
    03:00 +8°C° 0 mm 4 mps 751 mmHg 80%
    04:00 +7°C° 0 mm 4 mps 751 mmHg 82%
    05:00 +7°C° 0 mm 4 mps 751 mmHg 83%
    06:00 +7°C° 0 mm 4 mps 752 mmHg 84%
    07:00 +7°C° 0 mm 4 mps 752 mmHg 85%
    08:00 +8°C° 0 mm 4 mps 752 mmHg 79%
    09:00 +11°C° 0 mm 4 mps 753 mmHg 74%
    10:00 +12°C° 0 mm 4 mps 753 mmHg 68%
    11:00 +13°C° 0 mm 4 mps 753 mmHg 64%
    12:00 +14°C° 0 mm 4 mps 753 mmHg 60%
    13:00 +15°C° 0 mm 4 mps 752 mmHg 56%
    14:00 +14°C° 0 mm 3 mps 752 mmHg 59%
    15:00 +14°C° 0 mm 3 mps 753 mmHg 61%
    16:00 +14°C° 0 mm 2 mps 753 mmHg 63%
    17:00 +13°C° 0 mm 2 mps 753 mmHg 67%
    18:00 +12°C° 0 mm 2 mps 754 mmHg 71%
    19:00 +10°C° 0 mm 2 mps 754 mmHg 75%
    20:00 +10°C° 0 mm 2 mps 754 mmHg 76%
    21:00 +10°C° 0 mm 2 mps 755 mmHg 77%
    22:00 +9°C° 0 mm 2 mps 755 mmHg 78%
    23:00 +9°C° 0 mm 2 mps 755 mmHg 79%
    Show more